Weather History for KNGP - August, 2013

Change the Weather History Date:

Saturday, August 10, 2013

  Actual Average (WUND) Record (WUND)
Temperature  
Mean Temperature 86 °F -  
Max Temperature 91 °F - - (-1)
Min Temperature 82 °F - - (-1)
Cooling Degree Days 22    
Growing Degree Days 36 (Base 50)    
Moisture  
Dew Point 79 °F    
Average Humidity 81    
Maximum Humidity 94    
Minimum Humidity 63    
Precipitation  
Precipitation 0.00 in - - ()
Sea Level Pressure  
Sea Level Pressure 29.97 in    
Wind  
Wind Speed 8 mph (East)    
Max Wind Speed 17 mph    
Max Gust Speed -    
Visibility 10 miles    
Events Thunderstorm    
Averages and records for this station are not official NWS values.
T = Trace of Precipitation, MM = Missing Value Source: NWS Daily Summary

Daily Weather History Graph

Daily Weather History Graph

Search for Another Location

Airport or City:

Trip Planner

Search our weather history database for the weather conditions in past years. The results will help you decide how hot, cold, wet, or windy it might be!

Date:

Astronomy

Aug. 10, 2013 Rise Set
Actual Time 6:57 AM CDT 8:11 PM CDT
Civil Twilight 6:32 AM CDT 8:36 PM CDT
Nautical Twilight 6:03 AM CDT 9:05 PM CDT
Astronomical Twilight 5:32 AM CDT 9:35 PM CDT
Moon 10:19 AM CDT (8/10) 10:21 PM CDT (8/10)
Length of Visible Light 14h 03m
Length of Day
13h 14m
Waxing Crescent, 14% of the Moon is Illuminated
Aug 10
Waxing Crescent
Aug 14
First Quarter
Aug 20
Full
Aug 28
Last Quarter
Sep 5
New

Hourly Weather History & Observations

Time (CDT) Temp. Heat Index Dew Point Humidity Pressure Visibility Wind Dir Wind Speed Gust Speed Precip Events Conditions
12:56 AM 82.0 °F 92.8 °F 80.1 °F 94% 29.94 in 10.0 mi ESE 3.5 mph - N/A   Clear
1:56 AM 82.0 °F 92.8 °F 80.1 °F 94% 29.94 in 10.0 mi East 3.5 mph - N/A   Clear
2:56 AM 82.0 °F 91.6 °F 79.0 °F 90% 29.94 in 10.0 mi East 3.5 mph - N/A   Clear
3:56 AM 82.0 °F 91.6 °F 79.0 °F 90% 29.93 in 10.0 mi East 4.6 mph - N/A   Clear
4:56 AM 82.0 °F 91.6 °F 79.0 °F 90% 29.93 in 10.0 mi East 3.5 mph - N/A   Clear
5:56 AM 82.0 °F 91.6 °F 79.0 °F 90% 29.94 in 10.0 mi East 5.8 mph - N/A   Partly Cloudy
6:56 AM 82.0 °F 92.8 °F 80.1 °F 94% 29.94 in 10.0 mi ENE 5.8 mph - N/A   Clear
7:56 AM 82.9 °F 94.8 °F 80.1 °F 91% 29.95 in 9.0 mi ENE 8.1 mph - N/A   Clear
8:56 AM 86.0 °F 102.5 °F 81.0 °F 85% 29.97 in 10.0 mi NE 8.1 mph - N/A   Partly Cloudy
9:56 AM 87.1 °F 103.2 °F 80.1 °F 80% 29.99 in 10.0 mi NE 10.4 mph - N/A   Scattered Clouds
10:56 AM 87.1 °F 99.8 °F 78.1 °F 74% 30.00 in 10.0 mi East 10.4 mph - N/A   Partly Cloudy
11:56 AM 89.1 °F 106.4 °F 80.1 °F 75% 30.00 in 10.0 mi East 17.3 mph - N/A   Partly Cloudy
12:48 PM 89.6 °F 104.7 °F 78.8 °F 70% 30.00 in 10.0 mi ESE 13.8 mph - N/A   Mostly Cloudy
12:56 PM 89.1 °F 103.2 °F 78.1 °F 70% 30.00 in 10.0 mi East 13.8 mph - N/A Thunderstorm Thunderstorm
1:19 PM 89.6 °F 104.7 °F 78.8 °F 70% 29.99 in 10.0 mi East 15.0 mph - N/A   Mostly Cloudy
1:27 PM 89.6 °F 104.7 °F 78.8 °F 70% 29.98 in 10.0 mi East 15.0 mph - N/A   Scattered Clouds
1:56 PM 91.0 °F 107.6 °F 79.0 °F 68% 29.99 in 10.0 mi East 15.0 mph - N/A   Clear
2:56 PM 88.0 °F 100.2 °F 77.0 °F 70% 29.97 in 10.0 mi East 10.4 mph - N/A   Partly Cloudy
3:56 PM 90.0 °F 101.3 °F 75.9 °F 63% 29.97 in 10.0 mi East 15.0 mph - N/A   Clear
4:56 PM 88.0 °F 98.5 °F 75.9 °F 67% 29.95 in 10.0 mi East 13.8 mph - N/A   Clear
5:56 PM 86.0 °F 96.0 °F 75.9 °F 72% 29.96 in 10.0 mi East 12.7 mph - N/A   Clear
6:56 PM 84.9 °F 98.9 °F 80.1 °F 85% 29.95 in 10.0 mi East 12.7 mph - N/A   Partly Cloudy
7:56 PM 84.0 °F 96.0 °F 79.0 °F 85% 29.96 in 10.0 mi East 10.4 mph - N/A   Clear
8:56 PM 82.9 °F 93.8 °F 79.0 °F 88% 29.97 in 10.0 mi East 11.5 mph - N/A   Clear
9:56 PM 82.9 °F 91.8 °F 77.0 °F 82% 29.98 in 10.0 mi East 10.4 mph - N/A   Clear
10:56 PM 82.9 °F 93.8 °F 79.0 °F 88% 29.99 in 10.0 mi East 10.4 mph - N/A   Clear
11:56 PM 82.9 °F 94.8 °F 80.1 °F 91% 29.98 in 10.0 mi ESE 11.5 mph - N/A   Clear